sat.trackr.live / text

‹ back to catalog

THURAYA-4

NORAD 62483 · 2025-001A

PAYLOAD ACTIVE UNKNOWN

§ Identity

Operator
Country
UAE
Launch date
2025-01-04
Launch site
AFETR
Launch vehicle
Mass (kg)
RCS (m²)

Purposes: comms

External: N2YO · Heavens-Above · Gunter

§ Orbital elements

Epoch: 2026-05-25T02:14:38.940000Z

Period
1,436.07 min
Inclination
0.0358°
Eccentricity
0.0000105
Mean motion
1.00273485 rev/d
Perigee alt
35,785.7 km
Apogee alt
35,786.6 km
Semi-major
42,164.3 km
B*
0.0000e+0
RAAN
113.3099°
Arg perigee
216.0976°
Mean anomaly
351.2547°
Rev number
394

§ Raw data

THURAYA-41 62483U 25001A   26145.09350625  .00000137  00000+0  00000+0 0  99982 62483   0.0358 113.3099 0000105 216.0976 351.2547  1.00273485  3947

JSON: /api/v1/satellites/62483 · /tle

For live sub-satellite position, see the globe view (requires WebGL).

§ Visibility from observer

Set your observer location to see the next 7 days of passes ≥ 10°. The values pass through the URL so the page stays shareable.

No JS? Fill the form by hand. The geolocation button needs JavaScript.